ATHENOXAT 1 (41168 NORAD) Tracking and Keplerian Element Data

This shows tracking and keplerian element data for the satellite.

Feedback or suggestion? Click here.




ElementValue
Catalog41168
NameATHENOXAT 1
Epoch Orbit38412
Epoch Day324.44008102
Epoch Year2022
RAAN10.6193
Inclination14.9845
Eccentricity0.0008703
Argument of Perigee279.2063
Mean Anonmoly273.1429
Mean Motion15.26238515
Decay Rate0.00020962
L11 41168U 15077C 22324.44008102 .00020962 00000+0 75113-3 0 9990
L22 41168 14.9845 10.6193 0008703 279.2063 273.1429 15.26238515384124



Live tracking and technical data element details for ATHENOXAT 1 (NORAD 41168). ATHENOXAT 1 can be tracked NOW for your location showing map with azimuth and elevation plus other details from your city location.







IsCatalogInMostPopularTable: catalog: 41168, numindb: 519
Update: records affected: 1



GetName: 41168 ATHENOXAT 1

Hit Count: updated at: Mon, 28 Nov 2022 04:33:45 GMT